AirNav   Everest Fuels
 
 346 users online  

83MO North Kansas City Hospital Heliport
North Kansas City, Missouri, USA

GOING TO NORTH KANSAS CITY?


FAA INFORMATION EFFECTIVE 21 MAY 2020

Location

FAA Identifier: 83MO
Lat/Long: 39-09-03.6800N 094-33-02.1200W
39-09.061333N 094-33.035333W
39.1510222,-94.5505889
(estimated)
Elevation: 411 ft. / 125 m (estimated)
Variation: 05E (1985)
Time zone: UTC -5 (UTC -6 during Standard Time)
Zip code: 64116

Heliport Operations

Heliport use: Private use, MEDICAL.
Activation date: 04/1983
Control tower: no
ARTCC: KANSAS CITY CENTER
FSS: COLUMBIA FLIGHT SERVICE STATION
Attendance: UNATNDD
Wind indicator: lighted
Segmented circle: yes
Lights: FOR PERIMETER LGTS CALL 816-346-7000.

Heliport Communications

WX ASOS at MKC (2.6 nm SW): PHONE 816-329-2843
WX ASOS at MCI (12 nm NW): PHONE 816-329-2808
WX ASOS at LXT (14 nm SE): 124.175 (816-347-9807)
WX AWOS-3 at GPH (16 nm NE): 120.275 (816-407-3399)

Nearby radio navigation aids

VOR radial/distance  VOR name  Freq  Var
MCIr128/11.8KANSAS CITY VORTAC113.2505E
ANXr273/19.9NAPOLEON VORTAC114.0007E

Heliport Services

Runway Information

Helipad H1

Dimensions: 45 x 45 ft. / 14 x 14 m
Surface: concrete
Runway edge lights: PERI
Latitude: 39-09.061333N
Longitude: 094-33.035333W
Elevation: 411.0 ft.
Traffic pattern: leftleft

Heliport Ownership and Management from official FAA records

Ownership: Privately-owned
Owner: NORTH KANSAS CITY HOSPITAL
2800 CLAY EDWARDS DR
NORTH KANSAS CITY, MO 64116
Phone 816-691-2000
Manager: JERALD L. HUSMAN, VP
2800 CLAY EDWARDS DR.
NORTH KANSAS CITY, MO 64116
Phone 816-691-5280

Additional Remarks

E111-1 CONT: EXISTING PAD IS ABNDD UPON ACTVTN OF THIS SITE.
A52-H1 BLDGS W & SW; PLINES W, E, &N.
OWNER DESIRES HELIPORT NOT BE CHARTED.
FOR CD CTC KANSAS CITY APCH AT 816-329-2710.

Instrument Procedures

There are no published instrument procedures at 83MO.

Some nearby airports with instrument procedures:

KMKC - Charles B Wheeler Downtown Airport (3 nm SW)
KMCI - Kansas City International Airport (12 nm NW)
KLXT - Lee's Summit Municipal Airport (14 nm SE)
KGPH - Midwest National Air Center Airport (16 nm NE)
3GV - East Kansas City Airport (18 nm SE)
3EX - Excelsior Springs Memorial Airport (20 nm NE)
 
Loc | Ops | Rwys | IFR | FBO | Links
Com | Nav | Svcs | Stats | Notes
Area around 83MO (North Kansas City Hospital Heliport)
 
Road maps at: MapQuest Bing Google
 
Aerial photo
No photo
 
Sectional chart

 
Airport distance calculator
Flying to North Kansas City Hospital Heliport? Find the distance to fly.

From to 83MO

Sunrise and sunset
Times for 06-Jun-2020
 Local
(UTC-5)
 Zulu
(UTC)
Morning civil twilight05:2110:21
Sunrise05:5310:53
Sunset20:4101:41
Evening civil twilight21:1302:13

Current date and time
Zulu (UTC)  06-Jun-2020 09:13:40
Local (UTC-5)  06-Jun-2020 04:13:40
 
METAR
KMKC 
3nm SW 
060854Z 11004KT 10SM CLR 25/21 A2995 RMK AO2 SLP132 T02500211 57001
KMCI 
12nm NW 
060853Z 15006KT 10SM CLR 23/22 A2996 RMK AO2 SLP135 T02280217 55001 $
KLXT 
14nm SE 
060853Z AUTO 16006KT 10SM CLR 24/21 A2997 RMK AO2 SLP139 T02390211 56002
KGPH 
16nm NE 
060855Z AUTO 00000KT 10SM CLR 21/20 A2997 RMK AO2
KOJC 
20nm SW 
060853Z AUTO 16004KT 10SM CLR 22/22 A2997 RMK AO2 SLP135 T02220217 55001
TAF
KMKC 
3nm SW 
060520Z 0606/0706 11005KT P6SM SKC FM061700 14009KT P6SM SCT040 FM070100 13009KT P6SM SKC
KMCI 
12nm NW 
060520Z 0606/0706 13008KT P6SM SKC FM061700 15009KT P6SM SCT040 FM070100 13009KT P6SM SKC
NOTAMs
Click for the latest NOTAMs
NOTAMs are issued by the DoD/FAA and will open in a separate window not controlled by AirNav.

 

 
 

Would you like to see your business listed on this page?

 If your business provides an interesting product or service to pilots, flight crews, aircraft, or users of the North Kansas City Hospital Heliport, you should consider listing it here.  To start the listing process, click on the button below
 
Add a business
 

Other Pages about North Kansas City Hospital Heliport

Update a link
 
Copyright © AirNav, LLC. All rights reserved. Privacy Policy  Contact